Wooster, OH

4:12 PM EDT on September 21, 2017 (GMT -0400)
Wayne County

Weather History for KBJJ - September, 2013

Change the Weather History Date:

Sunday, September 29, 2013

  Actual Average Record
Temperature  
Mean Temperature 61 °F -  
Max Temperature 73 °F 66 °F 81 °F (2014)
Min Temperature 50 °F 42 °F 32 °F (2000)
Degree Days  
Heating Degree Days 4    
Growing Degree Days 11 (Base 50)    
Moisture  
Dew Point 55 °F    
Average Humidity 80    
Maximum Humidity 96    
Minimum Humidity 59    
Precipitation  
Precipitation 0.01 in - - ()
Sea Level Pressure  
Sea Level Pressure 30.06 in    
Wind  
Wind Speed 5 mph (South)    
Max Wind Speed 9 mph    
Max Gust Speed -    
Visibility 9 miles    
Events Rain    
Averages and records for this station are not official NWS values.
T = Trace of Precipitation, MM = Missing Value Source: NWS Daily Summary

Daily Weather History Graph

Daily Weather History Graph

Search for Another Location

Airport or City:

Trip Planner

Search our weather history database for the weather conditions in past years. The results will help you decide how hot, cold, wet, or windy it might be!

Date:

Astronomy

Sep. 29, 2013 Rise Set
Actual Time 7:22 AM EDT 7:12 PM EDT
Civil Twilight 6:54 AM EDT 7:39 PM EDT
Nautical Twilight 6:23 AM EDT 8:11 PM EDT
Astronomical Twilight 5:50 AM EDT 8:43 PM EDT
Moon 2:00 AM EDT (9/29) 4:09 PM EDT (9/29)
Length of Visible Light 12h 44m
Length of Day
11h 50m
Waning Crescent, 27% of the Moon is Illuminated
Sep 29
Waning Crescent
Oct 4
New
Oct 11
First Quarter
Oct 18
Full
Oct 26
Last Quarter

Hourly Weather History & Observations

Time (EDT) Temp. Dew Point Humidity Pressure Visibility Wind Dir Wind Speed Gust Speed Precip Events Conditions
12:56 AM 54.0 °F 51.1 °F 90% 30.11 in 8.0 mi SE 4.6 mph - N/A   Clear
1:56 AM 55.0 °F 52.0 °F 89% 30.11 in 10.0 mi SSE 3.5 mph - N/A   Clear
2:56 AM 53.1 °F 51.1 °F 93% 30.10 in 9.0 mi SE 3.5 mph - N/A   Clear
3:56 AM 51.1 °F 48.9 °F 92% 30.09 in 6.0 mi SE 3.5 mph - N/A   Clear
4:56 AM 50.0 °F 48.9 °F 96% 30.09 in 5.0 mi SE 4.6 mph - N/A   Clear
5:56 AM 51.1 °F 48.9 °F 92% 30.09 in 6.0 mi Calm Calm - N/A   Scattered Clouds
6:56 AM 54.0 °F 52.0 °F 93% 30.09 in 7.0 mi South 4.6 mph - N/A   Partly Cloudy
7:56 AM 54.0 °F 52.0 °F 93% 30.10 in 6.0 mi South 4.6 mph - N/A   Clear
8:56 AM 57.0 °F 54.0 °F 89% 30.10 in 8.0 mi SSW 5.8 mph - N/A   Scattered Clouds
9:56 AM 61.0 °F 55.0 °F 81% 30.09 in 10.0 mi South 9.2 mph - 0.01 in   Clear
10:56 AM 64.9 °F 55.0 °F 70% 30.08 in 10.0 mi South 8.1 mph - N/A   Clear
11:56 AM 66.0 °F 55.9 °F 70% 30.08 in 10.0 mi South 8.1 mph - N/A   Mostly Cloudy
12:56 PM 69.1 °F 57.0 °F 65% 30.07 in 10.0 mi South 6.9 mph - N/A   Clear
1:56 PM 71.1 °F 57.0 °F 61% 30.04 in 10.0 mi Variable 6.9 mph - N/A   Clear
2:56 PM 72.0 °F 57.0 °F 59% 30.02 in 10.0 mi South 6.9 mph - N/A   Clear
3:56 PM 71.1 °F 57.0 °F 61% 30.01 in 10.0 mi SSW 4.6 mph - N/A   Partly Cloudy
4:56 PM 71.1 °F 57.0 °F 61% 30.01 in 10.0 mi South 6.9 mph - N/A   Mostly Cloudy
5:56 PM 70.0 °F 57.9 °F 65% 30.01 in 10.0 mi Variable 6.9 mph - N/A   Mostly Cloudy
6:56 PM 69.1 °F 57.9 °F 68% 30.01 in 10.0 mi South 3.5 mph - N/A   Overcast
7:56 PM 66.0 °F 57.9 °F 75% 30.03 in 10.0 mi West 6.9 mph - 0.00 in Rain Light Rain
8:04 PM 64.4 °F 57.2 °F 77% 30.03 in 9.0 mi West 4.6 mph - 0.00 in Rain Light Rain
8:14 PM 64.4 °F 59.0 °F 83% 30.03 in 10.0 mi West 4.6 mph - 0.00 in Rain Light Rain
8:56 PM 64.0 °F 59.0 °F 84% 30.03 in 10.0 mi Calm Calm - 0.00 in   Overcast
9:56 PM 63.0 °F 57.9 °F 84% 30.03 in 10.0 mi Calm Calm - 0.00 in   Overcast
10:56 PM 62.1 °F 59.0 °F 90% 30.03 in 9.0 mi Calm Calm - N/A   Overcast
11:56 PM 62.1 °F 59.0 °F 90% 30.03 in 8.0 mi SSW 3.5 mph - N/A   Overcast